Cosmos 1707 - Orbit

View from above orbital plane
View from above orbital plane
View from above satellite
View from above satellite

Ground track
Ground track

The orbit data is extracted from the following two-line orbital elements,

1 16326U 85113A   13138.21043498  .00002745  00000-0  18738-3 0  6404
2 16326 082.5201 225.7755 0011463 355.4198 004.6922 15.05772400492303
Epoch (UTC): 18 May 2013 05:03:01
Eccentricity: 0.0011463
inclination: 82.5201°
perigee height: 541 km
apogee height: 557 km
right ascension of ascending node: 225.7755°
argument of perigee: 355.4198°
revolutions per day: 15.05772400
mean anomaly at epoch: 4.6922°
orbit number at epoch: 49230

The dashed part of the orbit path shows where the satellite is in the earth's shadow,  

Developed and maintained by Chris Peat, Heavens-Above GmbH. Please read the updated FAQ before sending e-mail. Imprint. DLR